Weather History for KAZO - September, 2013

Change the Weather History Date:

Wednesday, September 18, 2013

  Actual Average Record
Temperature  
Mean Temperature 66 °F 62 °F  
Max Temperature 80 °F 72 °F - ()
Min Temperature 51 °F 51 °F - ()
Degree Days  
Heating Degree Days 0 5  
Month to date heating degree days 54 45  
Since 1 July heating degree days 91 61  
Cooling Degree Days 1 1  
Month to date cooling degree days 76 46  
Year to date cooling degree days 704 657  
Growing Degree Days 16 (Base 50)    
Moisture  
Dew Point 51 °F    
Average Humidity 61    
Maximum Humidity 89    
Minimum Humidity 33    
Precipitation  
Precipitation T in 0.14 in - ()
Month to date precipitation 1.33 2.39  
Year to date precipitation 30.42 25.98  
Sea Level Pressure  
Sea Level Pressure 30.10 in    
Wind  
Wind Speed 4 mph (South)    
Max Wind Speed 16 mph    
Max Gust Speed 20 mph    
Visibility 10 miles    
Events      
T = Trace of Precipitation, MM = Missing Value Source: NWS Daily Summary

Daily Weather History Graph

Daily Weather History Graph

Search for Another Location

Airport or City:

Trip Planner

Search our weather history database for the weather conditions in past years. The results will help you decide how hot, cold, wet, or windy it might be!

Date:

Astronomy

Sep. 18, 2013 Rise Set
Actual Time 7:25 AM EDT 7:46 PM EDT
Civil Twilight 6:57 AM EDT 8:14 PM EDT
Nautical Twilight 6:24 AM EDT 8:47 PM EDT
Astronomical Twilight 5:50 AM EDT 9:20 PM EDT
Moon 7:08 PM EDT (9/18) 6:26 AM EDT (9/18)
Length of Visible Light 13h 16m
Length of Day
12h 20m
Waxing Gibbous, 99% of the Moon is Illuminated
Sep 18
Waxing Gibbous
Sep 19
Full
Sep 26
Last Quarter
Oct 4
New
Oct 11
First Quarter

Hourly Weather History & Observations

Time (EDT) Temp. Dew Point Humidity Pressure Visibility Wind Dir Wind Speed Gust Speed Precip Events Conditions
12:53 AM 55.9 °F 46.9 °F 72% 30.20 in 10.0 mi SSE 4.6 mph - N/A   Clear
1:53 AM 55.0 °F 46.9 °F 74% 30.18 in 10.0 mi Calm Calm - N/A   Clear
2:53 AM 53.1 °F 46.9 °F 80% 30.18 in 10.0 mi Calm Calm - N/A   Clear
3:53 AM 52.0 °F 46.9 °F 83% 30.17 in 10.0 mi Calm Calm - N/A   Clear
4:53 AM 52.0 °F 46.9 °F 83% 30.16 in 10.0 mi Calm Calm - N/A   Clear
5:53 AM 52.0 °F 48.0 °F 86% 30.16 in 10.0 mi Calm Calm - N/A   Clear
6:53 AM 52.0 °F 48.0 °F 86% 30.15 in 10.0 mi SSE 3.5 mph - N/A   Clear
7:53 AM 53.1 °F 48.9 °F 86% 30.17 in 10.0 mi South 3.5 mph - N/A   Clear
8:53 AM 57.0 °F 51.1 °F 81% 30.16 in 10.0 mi South 4.6 mph - N/A   Clear
9:53 AM 62.1 °F 53.1 °F 72% 30.16 in 10.0 mi South 4.6 mph - N/A   Partly Cloudy
10:53 AM 63.0 °F 54.0 °F 72% 30.16 in 10.0 mi South 4.6 mph - N/A   Scattered Clouds
11:53 AM 66.9 °F 55.0 °F 66% 30.14 in 10.0 mi South 6.9 mph - N/A   Mostly Cloudy
12:53 PM 72.0 °F 54.0 °F 53% 30.11 in 10.0 mi South 5.8 mph - N/A   Clear
1:53 PM 75.0 °F 53.1 °F 46% 30.10 in 10.0 mi Calm Calm - N/A   Clear
2:53 PM 78.1 °F 51.1 °F 39% 30.07 in 10.0 mi SSE 5.8 mph - N/A   Clear
3:53 PM 79.0 °F 48.0 °F 34% 30.04 in 10.0 mi South 8.1 mph 16.1 mph N/A   Clear
4:53 PM 80.1 °F 48.9 °F 34% 30.02 in 10.0 mi South 6.9 mph - N/A   Clear
5:53 PM 75.9 °F 52.0 °F 43% 30.03 in 10.0 mi South 6.9 mph - N/A   Partly Cloudy
6:53 PM 75.0 °F 52.0 °F 44% 30.02 in 10.0 mi South 5.8 mph - N/A   Clear
7:53 PM 72.0 °F 52.0 °F 49% 30.01 in 10.0 mi SSE 4.6 mph - N/A   Clear
8:53 PM 70.0 °F 52.0 °F 53% 30.02 in 10.0 mi SSE 3.5 mph - 0.00 in   Clear
9:53 PM 68.0 °F 53.1 °F 59% 30.02 in 10.0 mi South 3.5 mph - N/A   Clear
10:53 PM 66.0 °F 54.0 °F 65% 30.03 in 10.0 mi SSE 4.6 mph - N/A   Mostly Cloudy
11:53 PM 66.9 °F 53.1 °F 61% 30.02 in 10.0 mi South 4.6 mph - N/A   Scattered Clouds